Notices

What's New in latest Release from April 7th, 2021:

- Updated Glossary, including Speed of Maximum Gust, and Total Hourly Precipitation

- Updated national and regional climate services offices contacts and prices information

- Addition of station inventory lists for 1981-2010, 1971-2000, and 1961-1990 Normals.

If you haven't already, please take our survey and provide feedback about our website: https://eccc.sondage-survey.ca/f/LanguageSelection.aspx?s=442ca660-fcf1-47c0-95a9-59707d6fd709

Hourly Data Report for November 25, 2019

SAINT JOHN A
NEW BRUNSWICK
Current Station Operator: NAVCAN

45°18'58.000" N
65°53'24.000" W
108.80 m
8104901
71609
YSJ

Download Data

Hourly Data (November 2019)
Hourly Data Report for November 25, 2019
TIME
LST
Temp Definition
°C
Dew Point Definition
°C
Rel Hum Definition
%
Precip. Amount Definition
mm

Wind Dir Definition
10's deg

Wind Spd Definition
km/h
Visibility Definition
km
Stn Press Definition
kPa
Hmdx Definition


Wind Chill Definition


Weather Definition


00:00 5.2 4.4 94   6 28 9.7 97.38     Rain,Fog
01:00 5.4 4.8 96   6 18 9.7 97.24     Rain,Fog
02:00 4.5 4.0 97   1 19 4.8 97.15     Rain,Fog
03:00 2.5 2.2 98   36 14 4.8 97.12     Rain,Fog
04:00 2.5 2.3 98   1 23 4.8 97.11     Rain,Fog
05:00 2.9 2.6 98   35 20 4.8 97.13     Rain,Fog
06:00 2.2 1.9 98   33 28 4.8 97.24     Rain,Fog
07:00 1.2 0.7 97   32 30 8.1 97.38     Rain,Fog
08:00 0.7 0.0 95   32 30 8.1 97.51     Rain,Fog
09:00 0.4 -0.2 96   30 26 1.6 97.74     Snow,Fog
10:00 0.6 -0.2 94   30 25 4.8 97.93     Snow,Fog
11:00 0.9 -0.2 93   28 26 8.1 98.15     Snow,Fog
12:00 0.9 -0.4 91   29 26 16.1 98.27     Snow
13:00 1.9 0.0 87   30 28 24.1 98.39     LegendNANA
14:00 2.2 -0.4 83   30 32 24.1 98.49     Mostly Cloudy
15:00 2.1 -0.6 82   29 23 24.1 98.67     LegendNANA
16:00 1.8 -1.0 82   29 17 24.1 98.82     LegendNANA
17:00 1.3 -1.1 84   28 16 24.1 98.95     Mainly Clear
18:00 1.5 -0.4 87   28 19 24.1 99.11     LegendNANA
19:00 2.1 0.0 86   26 14 24.1 99.25     LegendNANA
20:00 1.8 0.0 88   26 14 24.1 99.38     Mostly Cloudy
21:00 1.8 -0.1 88   27 16 24.1 99.48     LegendNANA
22:00 1.4 -0.4 88   28 9 24.1 99.53     LegendNANA
23:00 0.8 -0.6 91   27 12 24.1 99.59     Clear

Notes on Data Quality.

Legend

  • E = Estimated
  • M = Missing
  • NA = Not Available*
  • [empty] = Indicates an unobserved value
Date modified: